Cleveland Burke, OH

2:45 PM EST on December 14, 2017 (GMT -0500)
Burke Lakefront

Weather History for KBKL - October, 2010

Change the Weather History Date:

Monday, October 11, 2010

  Actual Average Record
Temperature  
Mean Temperature 66 °F -  
Max Temperature 73 °F 62 °F 80 °F (2008)
Min Temperature 59 °F 48 °F 39 °F (2012)
Cooling Degree Days 1    
Growing Degree Days 16 (Base 50)    
Moisture  
Dew Point 55 °F    
Average Humidity 72    
Maximum Humidity 90    
Minimum Humidity 55    
Precipitation  
Precipitation 0.00 in - - ()
Sea Level Pressure  
Sea Level Pressure 29.81 in    
Wind  
Wind Speed 5 mph (SSE)    
Max Wind Speed 8 mph    
Max Gust Speed -    
Visibility 8 miles    
Events      
Averages and records for this station are not official NWS values.
T = Trace of Precipitation, MM = Missing Value Source: NWS Daily Summary

Daily Weather History Graph

Daily Weather History Graph

Search for Another Location

Airport or City:

Trip Planner

Search our weather history database for the weather conditions in past years. The results will help you decide how hot, cold, wet, or windy it might be!

Date:

Astronomy

Oct. 11, 2010 Rise Set
Actual Time 7:34 AM EDT 6:51 PM EDT
Civil Twilight 7:06 AM EDT 7:19 PM EDT
Nautical Twilight 6:34 AM EDT 7:51 PM EDT
Astronomical Twilight 6:02 AM EDT 8:23 PM EDT
Moon 12:13 PM EDT (10/11) 9:24 PM EDT (10/11)
Length of Visible Light 12h 13m
Length of Day
11h 17m
Waxing Crescent, 19% of the Moon is Illuminated
Oct 11
Waxing Crescent
Oct 14
First Quarter
Oct 22
Full
Oct 30
Last Quarter
Nov 6
New

Hourly Weather History & Observations

Time (EDT) Temp. Dew Point Humidity Pressure Visibility Wind Dir Wind Speed Gust Speed Precip Events Conditions
12:53 AM 63.0 °F 57.0 °F 81% 29.83 in 6.0 mi SSE 4.6 mph - N/A   Haze
1:53 AM 62.1 °F 55.9 °F 80% 29.83 in 5.0 mi South 5.8 mph - N/A   Haze
2:53 AM 61.0 °F 55.9 °F 83% 29.82 in 5.0 mi SSE 6.9 mph - N/A   Haze
3:53 AM 60.1 °F 55.0 °F 83% 29.81 in 6.0 mi South 6.9 mph - N/A   Haze
4:53 AM 60.1 °F 54.0 °F 80% 29.83 in 7.0 mi South 6.9 mph - N/A   Clear
5:53 AM 59.0 °F 53.1 °F 81% 29.83 in 8.0 mi South 6.9 mph - N/A   Clear
6:53 AM 59.0 °F 51.1 °F 75% 29.83 in 10.0 mi South 4.6 mph - N/A   Scattered Clouds
7:53 AM 60.1 °F 51.1 °F 72% 29.84 in 9.0 mi South 5.8 mph - N/A   Scattered Clouds
8:53 AM 61.0 °F 51.1 °F 70% 29.84 in 7.0 mi South 8.1 mph - N/A   Scattered Clouds
9:53 AM 64.9 °F 52.0 °F 63% 29.83 in 9.0 mi South 6.9 mph - N/A   Mostly Cloudy
10:53 AM 69.1 °F 53.1 °F 57% 29.84 in 8.0 mi South 4.6 mph - N/A   Mostly Cloudy
11:53 AM 72.0 °F 55.0 °F 55% 29.83 in 4.0 mi WSW 5.8 mph - N/A   Haze
12:53 PM 73.0 °F 55.9 °F 55% 29.81 in 10.0 mi WSW 5.8 mph - N/A   Clear
1:53 PM 72.0 °F 55.9 °F 57% 29.80 in 10.0 mi WSW 6.9 mph - N/A   Partly Cloudy
2:53 PM 68.0 °F 59.0 °F 73% 29.78 in 10.0 mi Calm Calm - N/A   Clear
3:53 PM 66.9 °F 59.0 °F 76% 29.78 in 10.0 mi ENE 4.6 mph - N/A   Mostly Cloudy
4:53 PM 66.9 °F 55.9 °F 68% 29.78 in 10.0 mi Calm Calm - N/A   Mostly Cloudy
5:53 PM 66.0 °F 55.0 °F 68% 29.77 in 10.0 mi Calm Calm - N/A   Scattered Clouds
6:53 PM 66.0 °F 54.0 °F 65% 29.77 in 10.0 mi SSE 3.5 mph - N/A   Mostly Cloudy
7:53 PM 66.9 °F 54.0 °F 63% 29.78 in 10.0 mi Calm Calm - N/A   Scattered Clouds
8:53 PM 64.9 °F 54.0 °F 68% 29.78 in 8.0 mi SSE 3.5 mph - N/A   Clear
9:53 PM 61.0 °F 57.9 °F 90% 29.80 in 7.0 mi NE 4.6 mph - N/A   Clear
10:53 PM 62.1 °F 57.9 °F 86% 29.79 in 6.0 mi ENE 5.8 mph - N/A   Partly Cloudy
11:53 PM 61.0 °F 57.9 °F 90% 29.81 in 4.0 mi ENE 6.9 mph - N/A   Partly Cloudy